AAY33 KLAS-KCHA

Flight info

Callsign AAY33
Flight time N/A
Altitude 37000
Route NIITZ4 SSKEE GUP J8 FTI TUL MAYJI IGLOO
Aircraft A319/M-SDFGIRWYZ/SB1

Departure

Time N/A
Airport Harry Reid International Airport (KLAS)

Arrival

Time 2026-05-03 23:05
Airport Chattanooga Metropolitan Airport (Lovell Field) (KCHA)
Time Latitude Longitude Altitude Speed Heading
2026-05-03 20:15 35.79447 -112.88406 33613 ft 536 kts 105°
2026-05-03 20:15 35.78778 -112.83883 33893 ft 537 kts 104°
2026-05-03 20:15 35.78102 -112.79362 34142 ft 538 kts 105°
2026-05-03 20:15 35.77420 -112.74828 34412 ft 539 kts 105°
2026-05-03 20:16 35.76738 -112.70290 34718 ft 538 kts 105°
2026-05-03 20:16 35.76061 -112.65763 35040 ft 538 kts 105°
2026-05-03 20:16 35.75384 -112.61238 35328 ft 537 kts 104°
2026-05-03 20:16 35.74709 -112.56717 35580 ft 538 kts 105°
2026-05-03 20:17 35.74029 -112.52187 35840 ft 538 kts 105°
2026-05-03 20:17 35.73348 -112.47666 36139 ft 536 kts 105°
2026-05-03 20:17 35.72666 -112.43163 36397 ft 536 kts 105°
2026-05-03 20:17 35.71979 -112.38657 36637 ft 536 kts 105°
2026-05-03 20:18 35.71292 -112.34154 36869 ft 536 kts 104°
2026-05-03 20:18 35.70608 -112.29652 37085 ft 536 kts 104°
2026-05-03 20:18 35.69922 -112.25149 37152 ft 534 kts 104°
2026-05-03 20:19 35.68553 -112.16220 37157 ft 530 kts 104°
2026-05-03 20:19 35.67186 -112.07341 37166 ft 527 kts 105°
2026-05-03 20:20 35.65821 -111.98502 37166 ft 526 kts 105°
2026-05-03 20:20 35.64448 -111.89678 37164 ft 525 kts 105°
2026-05-03 20:21 35.63368 -111.82332 37162 ft 527 kts 99°
2026-05-03 20:21 35.62928 -111.73310 37159 ft 529 kts 95°
2026-05-03 20:22 35.62495 -111.62814 37158 ft 529 kts 95°
2026-05-03 20:22 35.62174 -111.55247 37148 ft 529 kts 95°
2026-05-03 20:23 35.61784 -111.46219 37142 ft 529 kts 95°
2026-05-03 20:23 35.61384 -111.37184 37138 ft 529 kts 95°
2026-05-03 20:24 35.60970 -111.28154 37133 ft 530 kts 95°
2026-05-03 20:24 35.60551 -111.19109 37127 ft 530 kts 95°
2026-05-03 20:25 35.60131 -111.10064 37123 ft 530 kts 95°
2026-05-03 20:25 35.59706 -111.01016 37118 ft 531 kts 95°
2026-05-03 20:26 35.59268 -110.91957 37111 ft 531 kts 95°
2026-05-03 20:26 35.58818 -110.82903 37113 ft 531 kts 95°
2026-05-03 20:27 35.58371 -110.73845 37115 ft 531 kts 95°
2026-05-03 20:27 35.57918 -110.64802 37112 ft 531 kts 95°
2026-05-03 20:28 35.57456 -110.55751 37104 ft 530 kts 95°
2026-05-03 20:28 35.56984 -110.46718 37101 ft 530 kts 95°
2026-05-03 20:29 35.56509 -110.37741 37095 ft 530 kts 95°
2026-05-03 20:29 35.56032 -110.28708 37098 ft 530 kts 95°
2026-05-03 20:30 35.55550 -110.19679 37104 ft 529 kts 95°
2026-05-03 20:30 35.55060 -110.10667 37104 ft 529 kts 95°
2026-05-03 20:31 35.54555 -110.01661 37104 ft 529 kts 95°
2026-05-03 20:31 35.54047 -109.92655 37112 ft 529 kts 95°
2026-05-03 20:32 35.53535 -109.83651 37123 ft 529 kts 95°
2026-05-03 20:32 35.53015 -109.74649 37128 ft 529 kts 95°
2026-05-03 20:33 35.52486 -109.65649 37133 ft 529 kts 95°
2026-05-03 20:33 35.51946 -109.56645 37140 ft 529 kts 95°
2026-05-03 20:34 35.51400 -109.47640 37146 ft 529 kts 95°
2026-05-03 20:34 35.50856 -109.38624 37152 ft 530 kts 95°
2026-05-03 20:35 35.50305 -109.29600 37154 ft 530 kts 95°
2026-05-03 20:35 35.49740 -109.20584 37159 ft 530 kts 95°
2026-05-03 20:36 35.49163 -109.11559 37161 ft 531 kts 96°
2026-05-03 20:36 35.48590 -109.02530 37160 ft 531 kts 95°
2026-05-03 20:37 35.48005 -108.93501 37160 ft 531 kts 95°
2026-05-03 20:37 35.47769 -108.84452 37162 ft 531 kts 84°
2026-05-03 20:38 35.48370 -108.75433 37160 ft 531 kts 84°
2026-05-03 20:38 35.48938 -108.66404 37168 ft 531 kts 84°
2026-05-03 20:39 35.49487 -108.57371 37170 ft 531 kts 84°
2026-05-03 20:39 35.50036 -108.48350 37172 ft 530 kts 84°
2026-05-03 20:40 35.50586 -108.39313 37170 ft 531 kts 84°
2026-05-03 20:40 35.51124 -108.30286 37177 ft 531 kts 84°
2026-05-03 20:41 35.51651 -108.21316 37185 ft 530 kts 84°
2026-05-03 20:41 35.52185 -108.12293 37189 ft 530 kts 84°
2026-05-03 20:42 35.52710 -108.03278 37190 ft 529 kts 84°
2026-05-03 20:42 35.53221 -107.94269 37187 ft 529 kts 84°
2026-05-03 20:43 35.53726 -107.85261 37185 ft 529 kts 84°
2026-05-03 20:43 35.54225 -107.76249 37188 ft 529 kts 85°
2026-05-03 20:44 35.54706 -107.67248 37191 ft 529 kts 85°
2026-05-03 20:44 35.55185 -107.58233 37192 ft 529 kts 85°
2026-05-03 20:45 35.55665 -107.49220 37190 ft 529 kts 85°
2026-05-03 20:45 35.56137 -107.40216 37189 ft 529 kts 84°
2026-05-03 20:46 35.56616 -107.31203 37183 ft 529 kts 84°
2026-05-03 20:46 35.57076 -107.22183 37182 ft 529 kts 85°
2026-05-03 20:47 35.57514 -107.13160 37188 ft 529 kts 85°
2026-05-03 20:47 35.57954 -107.04189 37191 ft 529 kts 85°
2026-05-03 20:48 35.58397 -106.95163 37195 ft 529 kts 85°
2026-05-03 20:48 35.58837 -106.86141 37199 ft 529 kts 84°
2026-05-03 20:49 35.59262 -106.77107 37198 ft 529 kts 84°
2026-05-03 20:49 35.59674 -106.68088 37201 ft 529 kts 85°
2026-05-03 20:50 35.60080 -106.59080 37198 ft 528 kts 85°
2026-05-03 20:50 35.60487 -106.50072 37199 ft 528 kts 85°
2026-05-03 20:51 35.60885 -106.41064 37202 ft 528 kts 85°
2026-05-03 20:51 35.61268 -106.32064 37204 ft 527 kts 85°
2026-05-03 20:52 35.61651 -106.23068 37201 ft 527 kts 85°
2026-05-03 20:52 35.62031 -106.14077 37198 ft 527 kts 85°
2026-05-03 20:53 35.62408 -106.05087 37196 ft 527 kts 85°
2026-05-03 20:53 35.62764 -105.96094 37196 ft 527 kts 85°
2026-05-03 20:54 35.63105 -105.87102 37199 ft 526 kts 85°
2026-05-03 20:54 35.63627 -105.73688 37194 ft 526 kts 85°
2026-05-03 20:55 35.63971 -105.64701 37192 ft 527 kts 85°
2026-05-03 20:55 35.64299 -105.55713 37182 ft 527 kts 85°
2026-05-03 20:56 35.64624 -105.46719 37170 ft 526 kts 85°
2026-05-03 20:56 35.64943 -105.37724 37165 ft 527 kts 85°
2026-05-03 20:57 35.65254 -105.28721 37166 ft 527 kts 85°
2026-05-03 20:57 35.65554 -105.19723 37166 ft 527 kts 85°
2026-05-03 20:58 35.65879 -105.10735 37164 ft 526 kts 83°
2026-05-03 20:58 35.66657 -105.01810 37163 ft 524 kts 78°
2026-05-03 20:59 35.67702 -104.92952 37162 ft 524 kts 78°
2026-05-03 20:59 35.68646 -104.84072 37159 ft 524 kts 80°
2026-05-03 21:00 35.69197 -104.78110 37163 ft 524 kts 80°
2026-05-03 21:00 35.70244 -104.66243 37168 ft 524 kts 80°
2026-05-03 21:01 35.71057 -104.57344 37166 ft 523 kts 80°
2026-05-03 21:01 35.71884 -104.48459 37161 ft 522 kts 80°
2026-05-03 21:02 35.72700 -104.39588 37142 ft 522 kts 80°
2026-05-03 21:02 35.73499 -104.30727 37138 ft 521 kts 80°
2026-05-03 21:03 35.74293 -104.21855 37117 ft 521 kts 80°
2026-05-03 21:03 35.75079 -104.12971 37071 ft 522 kts 80°
2026-05-03 21:04 35.75866 -104.04084 37062 ft 522 kts 80°
2026-05-03 21:04 35.76650 -103.95194 37057 ft 522 kts 80°
2026-05-03 21:05 35.77419 -103.86301 37052 ft 522 kts 80°
2026-05-03 21:05 35.78051 -103.78903 37049 ft 523 kts 81°
2026-05-03 21:06 35.78810 -103.69999 37048 ft 523 kts 81°
2026-05-03 21:06 35.79685 -103.59648 37048 ft 523 kts 81°
2026-05-03 21:07 35.80306 -103.52178 37052 ft 523 kts 80°
2026-05-03 21:07 35.81047 -103.43263 37050 ft 523 kts 81°
2026-05-03 21:08 35.81773 -103.34414 37046 ft 523 kts 81°
2026-05-03 21:08 35.82496 -103.25499 37041 ft 523 kts 81°
2026-05-03 21:09 35.83211 -103.16573 37041 ft 523 kts 81°
2026-05-03 21:09 35.83926 -103.07652 37040 ft 523 kts 81°
2026-05-03 21:10 35.84641 -102.98725 37038 ft 523 kts 80°
2026-05-03 21:10 35.85347 -102.89799 37036 ft 524 kts 81°
2026-05-03 21:11 35.86034 -102.80865 37039 ft 524 kts 81°
2026-05-03 21:11 35.86719 -102.71928 37047 ft 523 kts 81°
2026-05-03 21:12 35.87401 -102.62999 37039 ft 523 kts 81°
2026-05-03 21:12 35.88083 -102.54086 37042 ft 521 kts 81°
2026-05-03 21:13 35.88742 -102.45172 37043 ft 522 kts 81°
2026-05-03 21:13 35.89397 -102.36259 37041 ft 522 kts 81°
2026-05-03 21:14 35.90054 -102.27355 37043 ft 522 kts 81°
2026-05-03 21:14 35.90707 -102.18452 37043 ft 521 kts 81°
2026-05-03 21:15 35.91350 -102.09558 37039 ft 521 kts 81°
2026-05-03 21:15 35.91971 -102.00672 37039 ft 519 kts 82°
2026-05-03 21:16 35.92583 -101.91805 37043 ft 518 kts 81°
2026-05-03 21:16 35.93199 -101.82956 37029 ft 518 kts 81°
2026-05-03 21:17 35.93708 -101.75596 37015 ft 518 kts 81°
2026-05-03 21:17 35.94406 -101.65321 37014 ft 517 kts 81°
2026-05-03 21:18 35.95007 -101.56438 37015 ft 516 kts 81°
2026-05-03 21:18 35.95595 -101.47667 37009 ft 516 kts 81°
2026-05-03 21:19 35.96167 -101.38838 36996 ft 517 kts 82°
2026-05-03 21:19 35.96741 -101.29998 37003 ft 516 kts 81°
2026-05-03 21:20 35.97316 -101.21169 37013 ft 516 kts 81°
2026-05-03 21:20 35.97880 -101.12349 37005 ft 515 kts 82°
2026-05-03 21:21 35.98422 -101.03537 37014 ft 514 kts 82°
2026-05-03 21:21 35.98958 -100.94734 37017 ft 513 kts 81°
2026-05-03 21:22 35.99500 -100.85950 37018 ft 513 kts 81°
2026-05-03 21:22 36.00034 -100.77176 37016 ft 512 kts 82°
2026-05-03 21:23 36.00553 -100.68425 37015 ft 510 kts 82°
2026-05-03 21:23 36.01063 -100.59718 37010 ft 507 kts 82°
2026-05-03 21:24 36.01573 -100.51051 36998 ft 505 kts 82°
2026-05-03 21:24 36.02068 -100.42414 36994 ft 503 kts 82°
2026-05-03 21:25 36.02565 -100.33789 36986 ft 503 kts 82°
2026-05-03 21:25 36.03050 -100.25185 36981 ft 502 kts 82°
2026-05-03 21:26 36.03528 -100.16594 36981 ft 501 kts 82°
2026-05-03 21:26 36.04003 -100.08013 36970 ft 501 kts 82°
2026-05-03 21:27 36.04466 -99.99426 36971 ft 501 kts 82°
2026-05-03 21:27 36.04913 -99.90843 36969 ft 500 kts 82°
2026-05-03 21:28 36.05361 -99.82269 36967 ft 500 kts 82°
2026-05-03 21:28 36.05809 -99.73694 36971 ft 500 kts 82°
2026-05-03 21:29 36.06252 -99.65116 36978 ft 500 kts 83°
2026-05-03 21:29 36.06689 -99.56546 36984 ft 500 kts 83°
2026-05-03 21:30 36.07111 -99.47971 36988 ft 500 kts 83°
2026-05-03 21:30 36.07527 -99.39454 36993 ft 499 kts 83°
2026-05-03 21:31 36.07944 -99.30899 37006 ft 499 kts 83°
2026-05-03 21:31 36.08354 -99.22354 37010 ft 498 kts 83°
2026-05-03 21:32 36.08750 -99.13813 37012 ft 497 kts 83°
2026-05-03 21:32 36.09136 -99.05293 37009 ft 496 kts 83°
2026-05-03 21:33 36.09523 -98.96783 37013 ft 495 kts 83°
2026-05-03 21:33 36.09908 -98.88283 37019 ft 495 kts 83°
2026-05-03 21:34 36.10287 -98.79791 37024 ft 494 kts 83°
2026-05-03 21:34 36.10652 -98.71319 37020 ft 493 kts 83°
2026-05-03 21:35 36.11004 -98.62857 37019 ft 493 kts 83°
2026-05-03 21:35 36.11352 -98.54402 37012 ft 492 kts 83°
2026-05-03 21:36 36.11706 -98.45965 37014 ft 491 kts 83°
2026-05-03 21:36 36.12056 -98.37537 37010 ft 491 kts 84°
2026-05-03 21:37 36.12383 -98.29118 37008 ft 490 kts 84°
2026-05-03 21:37 36.12714 -98.20715 37001 ft 489 kts 83°
2026-05-03 21:38 36.13041 -98.12319 36993 ft 489 kts 84°
2026-05-03 21:38 36.13360 -98.03929 36984 ft 488 kts 84°
2026-05-03 21:39 36.13667 -97.95538 36972 ft 488 kts 84°
2026-05-03 21:39 36.13964 -97.87152 36963 ft 488 kts 84°
2026-05-03 21:40 36.14262 -97.78765 36958 ft 488 kts 84°
2026-05-03 21:40 36.14555 -97.70376 36960 ft 488 kts 84°
2026-05-03 21:41 36.14843 -97.62037 36964 ft 488 kts 84°
2026-05-03 21:41 36.15120 -97.53650 36966 ft 488 kts 84°
2026-05-03 21:42 36.15394 -97.45204 36972 ft 488 kts 84°
2026-05-03 21:42 36.15665 -97.36869 36974 ft 488 kts 84°
2026-05-03 21:43 36.15934 -97.28478 36978 ft 488 kts 84°
2026-05-03 21:43 36.16188 -97.20093 36982 ft 487 kts 84°
2026-05-03 21:44 36.16440 -97.11660 36981 ft 487 kts 84°
2026-05-03 21:44 36.16686 -97.03285 36980 ft 487 kts 84°
2026-05-03 21:45 36.16921 -96.94909 36985 ft 486 kts 84°
2026-05-03 21:45 36.17141 -96.86604 36986 ft 486 kts 84°
2026-05-03 21:46 36.17361 -96.78247 36986 ft 486 kts 84°
2026-05-03 21:46 36.17585 -96.69897 36985 ft 485 kts 84°
2026-05-03 21:47 36.17807 -96.61553 36984 ft 485 kts 84°
2026-05-03 21:47 36.18013 -96.53220 36983 ft 485 kts 84°
2026-05-03 21:48 36.18209 -96.44888 36985 ft 484 kts 84°
2026-05-03 21:48 36.18411 -96.36553 36982 ft 484 kts 84°
2026-05-03 21:49 36.18607 -96.28229 36981 ft 484 kts 84°
2026-05-03 21:49 36.18791 -96.19910 36985 ft 483 kts 84°
2026-05-03 21:50 36.18937 -96.13006 36989 ft 483 kts 84°
2026-05-03 21:50 36.19112 -96.04700 36986 ft 482 kts 84°
2026-05-03 21:51 36.19285 -95.96406 36985 ft 482 kts 84°
2026-05-03 21:51 36.19451 -95.88106 36983 ft 482 kts 84°
2026-05-03 21:52 36.19455 -95.79808 36980 ft 485 kts 92°
2026-05-03 21:52 36.18057 -95.71614 36977 ft 489 kts 103°
2026-05-03 21:53 36.16274 -95.63495 36971 ft 489 kts 103°
2026-05-03 21:53 36.14501 -95.55362 36968 ft 490 kts 103°
2026-05-03 21:54 36.12730 -95.47233 36967 ft 490 kts 103°
2026-05-03 21:54 36.10929 -95.39106 36966 ft 489 kts 103°
2026-05-03 21:55 36.09128 -95.30988 36965 ft 490 kts 103°
2026-05-03 21:55 36.07324 -95.22871 36975 ft 490 kts 103°
2026-05-03 21:56 36.05517 -95.14754 36973 ft 490 kts 103°
2026-05-03 21:56 36.03697 -95.06632 36976 ft 490 kts 103°
2026-05-03 21:57 36.02111 -94.98470 36978 ft 487 kts 94°
2026-05-03 21:57 36.01641 -94.90158 36991 ft 485 kts 90°
2026-05-03 21:58 36.01221 -94.81841 37002 ft 485 kts 90°
2026-05-03 21:58 36.00782 -94.73304 37010 ft 485 kts 90°
2026-05-03 21:59 36.00356 -94.64997 37015 ft 485 kts 90°
2026-05-03 21:59 35.99931 -94.56689 37022 ft 485 kts 90°
2026-05-03 22:00 35.99504 -94.48392 37036 ft 484 kts 90°
2026-05-03 22:00 35.99059 -94.40098 37042 ft 484 kts 90°
2026-05-03 22:01 35.98615 -94.31815 37038 ft 483 kts 90°
2026-05-03 22:01 35.98172 -94.23538 37040 ft 483 kts 90°
2026-05-03 22:02 35.97714 -94.15254 37029 ft 483 kts 90°
2026-05-03 22:02 35.97246 -94.06981 37026 ft 483 kts 90°
2026-05-03 22:03 35.96774 -93.98706 37021 ft 483 kts 90°
2026-05-03 22:03 35.96308 -93.90435 37016 ft 483 kts 90°
2026-05-03 22:04 35.95833 -93.82173 37015 ft 483 kts 90°
2026-05-03 22:04 35.95344 -93.73897 37016 ft 483 kts 90°
2026-05-03 22:05 35.94848 -93.65628 37017 ft 483 kts 91°
2026-05-03 22:05 35.94348 -93.57363 37022 ft 483 kts 91°
2026-05-03 22:06 35.93851 -93.49098 37028 ft 483 kts 91°
2026-05-03 22:06 35.93355 -93.40902 37027 ft 482 kts 91°
2026-05-03 22:07 35.92844 -93.32650 37024 ft 482 kts 91°
2026-05-03 22:07 35.92320 -93.24397 37023 ft 482 kts 91°
2026-05-03 22:08 35.91795 -93.16156 37022 ft 481 kts 91°
2026-05-03 22:08 35.91267 -93.07926 37022 ft 481 kts 91°
2026-05-03 22:09 35.90731 -92.99707 37021 ft 481 kts 91°
2026-05-03 22:10 35.89926 -92.87383 37030 ft 480 kts 91°
2026-05-03 22:10 35.89376 -92.79170 37030 ft 480 kts 92°
2026-05-03 22:11 35.88817 -92.70963 37031 ft 480 kts 92°
2026-05-03 22:11 35.88264 -92.62758 37034 ft 480 kts 92°
2026-05-03 22:12 35.87714 -92.54564 37033 ft 480 kts 92°
2026-05-03 22:12 35.87150 -92.46363 37028 ft 480 kts 92°
2026-05-03 22:13 35.86576 -92.38173 37040 ft 479 kts 92°
2026-05-03 22:13 35.85994 -92.29989 37038 ft 479 kts 92°
2026-05-03 22:14 35.85406 -92.21818 37035 ft 479 kts 92°
2026-05-03 22:14 35.84818 -92.13648 37032 ft 478 kts 92°
2026-05-03 22:15 35.84218 -92.05482 37032 ft 478 kts 92°
2026-05-03 22:15 35.83617 -91.97311 37036 ft 478 kts 92°
2026-05-03 22:16 35.83013 -91.89202 37037 ft 479 kts 92°
2026-05-03 22:16 35.82404 -91.81029 37044 ft 479 kts 92°
2026-05-03 22:17 35.81792 -91.72856 37044 ft 479 kts 92°
2026-05-03 22:17 35.81317 -91.64684 37052 ft 478 kts 90°
2026-05-03 22:18 35.80953 -91.56511 37056 ft 478 kts 90°
2026-05-03 22:18 35.80570 -91.48336 37058 ft 478 kts 91°
2026-05-03 22:19 35.80149 -91.40170 37060 ft 478 kts 91°
2026-05-03 22:19 35.79708 -91.32008 37059 ft 477 kts 91°
2026-05-03 22:20 35.79263 -91.23850 37062 ft 477 kts 91°
2026-05-03 22:20 35.78822 -91.15711 37059 ft 476 kts 91°
2026-05-03 22:21 35.78384 -91.07571 37061 ft 476 kts 91°
2026-05-03 22:21 35.77930 -90.99424 37058 ft 477 kts 92°
2026-05-03 22:22 35.77468 -90.91289 37060 ft 476 kts 92°
2026-05-03 22:22 35.77008 -90.83152 37062 ft 476 kts 92°
2026-05-03 22:23 35.76542 -90.75021 37067 ft 475 kts 92°
2026-05-03 22:23 35.76073 -90.66906 37067 ft 475 kts 92°
2026-05-03 22:24 35.75597 -90.58791 37065 ft 475 kts 92°
2026-05-03 22:24 35.75114 -90.50668 37064 ft 476 kts 92°
2026-05-03 22:25 35.74623 -90.42546 37063 ft 476 kts 92°
2026-05-03 22:25 35.74126 -90.34479 37063 ft 475 kts 92°
2026-05-03 22:26 35.73624 -90.26362 37062 ft 476 kts 92°
2026-05-03 22:26 35.73124 -90.18236 37064 ft 476 kts 93°
2026-05-03 22:27 35.72613 -90.10119 37063 ft 476 kts 93°
2026-05-03 22:27 35.72183 -90.03369 37064 ft 476 kts 93°
2026-05-03 22:28 35.71657 -89.95241 37066 ft 476 kts 93°
2026-05-03 22:28 35.71129 -89.87117 37066 ft 476 kts 93°
2026-05-03 22:29 35.70600 -89.78994 37069 ft 476 kts 93°
2026-05-03 22:29 35.70062 -89.70868 37072 ft 477 kts 93°
2026-05-03 22:30 35.69513 -89.62746 37075 ft 476 kts 94°
2026-05-03 22:30 35.68963 -89.54625 37079 ft 477 kts 93°
2026-05-03 22:31 35.68411 -89.46489 37090 ft 477 kts 94°
2026-05-03 22:31 35.67854 -89.38363 37093 ft 477 kts 94°
2026-05-03 22:32 35.67293 -89.30242 37095 ft 477 kts 94°
2026-05-03 22:32 35.66726 -89.22126 37087 ft 477 kts 94°
2026-05-03 22:33 35.66141 -89.14001 37092 ft 477 kts 94°
2026-05-03 22:33 35.65556 -89.05868 37097 ft 477 kts 94°
2026-05-03 22:34 35.64962 -88.97741 37103 ft 478 kts 94°
2026-05-03 22:34 35.64363 -88.89609 37113 ft 478 kts 95°
2026-05-03 22:35 35.63766 -88.81480 37108 ft 478 kts 95°
2026-05-03 22:35 35.63170 -88.73394 37105 ft 478 kts 95°
2026-05-03 22:36 35.62561 -88.65251 37113 ft 479 kts 95°
2026-05-03 22:36 35.61937 -88.57109 37102 ft 479 kts 95°
2026-05-03 22:37 35.61314 -88.48950 37102 ft 479 kts 95°
2026-05-03 22:37 35.60692 -88.40798 37103 ft 480 kts 95°
2026-05-03 22:38 35.60053 -88.32635 37102 ft 480 kts 95°
2026-05-03 22:38 35.59408 -88.24473 37107 ft 480 kts 95°
2026-05-03 22:39 35.58760 -88.16307 37110 ft 480 kts 95°
2026-05-03 22:39 35.58112 -88.08132 37108 ft 481 kts 95°
2026-05-03 22:40 35.57467 -87.99967 37104 ft 480 kts 95°
2026-05-03 22:40 35.56798 -87.91798 37100 ft 480 kts 96°
2026-05-03 22:41 35.56119 -87.83631 37096 ft 481 kts 96°
2026-05-03 22:41 35.55446 -87.75461 37100 ft 481 kts 96°
2026-05-03 22:42 35.54769 -87.67285 37096 ft 481 kts 96°
2026-05-03 22:42 35.54082 -87.59108 37100 ft 481 kts 96°
2026-05-03 22:43 35.53388 -87.50924 37097 ft 482 kts 96°
2026-05-03 22:43 35.52688 -87.42745 37092 ft 482 kts 96°
2026-05-03 22:44 35.51980 -87.34561 37096 ft 482 kts 96°
2026-05-03 22:44 35.51269 -87.26354 36657 ft 487 kts 97°
2026-05-03 22:44 35.50909 -87.22222 36083 ft 485 kts 96°
2026-05-03 22:45 35.50551 -87.18110 35509 ft 484 kts 96°
2026-05-03 22:45 35.50192 -87.14010 34938 ft 483 kts 96°
2026-05-03 22:45 35.49828 -87.09908 34363 ft 484 kts 96°
2026-05-03 22:45 35.49461 -87.05800 33786 ft 484 kts 96°
2026-05-03 22:46 35.49095 -87.01698 33210 ft 482 kts 96°
2026-05-03 22:46 35.48732 -86.97621 32634 ft 479 kts 96°
2026-05-03 22:46 35.48372 -86.93567 32058 ft 476 kts 96°
2026-05-03 22:46 35.48011 -86.89539 31483 ft 474 kts 96°
2026-05-03 22:47 35.47650 -86.85533 30907 ft 471 kts 96°
2026-05-03 22:47 35.47293 -86.81602 30337 ft 468 kts 96°
2026-05-03 22:47 35.46931 -86.77644 29762 ft 466 kts 96°
2026-05-03 22:47 35.46567 -86.73704 29181 ft 463 kts 96°
2026-05-03 22:48 35.46208 -86.69793 28611 ft 461 kts 96°
2026-05-03 22:48 35.45851 -86.65897 28034 ft 458 kts 96°
2026-05-03 22:48 35.45493 -86.62030 27459 ft 455 kts 96°
2026-05-03 22:48 35.45137 -86.58180 26882 ft 453 kts 96°
2026-05-03 22:49 35.44781 -86.54354 26302 ft 450 kts 96°
2026-05-03 22:49 35.44425 -86.50552 25731 ft 448 kts 96°
2026-05-03 22:49 35.44069 -86.46769 25157 ft 446 kts 96°
2026-05-03 22:49 35.43712 -86.42996 24580 ft 444 kts 96°
2026-05-03 22:50 35.43358 -86.39242 24005 ft 443 kts 96°
2026-05-03 22:50 35.43004 -86.35496 23428 ft 441 kts 96°
2026-05-03 22:50 35.42646 -86.31764 22852 ft 440 kts 96°
2026-05-03 22:50 35.42287 -86.28042 22266 ft 439 kts 96°
2026-05-03 22:51 35.41929 -86.24320 21664 ft 439 kts 96°
2026-05-03 22:51 35.41572 -86.20611 21063 ft 438 kts 96°
2026-05-03 22:51 35.41218 -86.16907 20454 ft 435 kts 96°
2026-05-03 22:51 35.40869 -86.13249 19853 ft 429 kts 96°
2026-05-03 22:52 35.40523 -86.09644 19253 ft 423 kts 96°
2026-05-03 22:52 35.40177 -86.06095 18653 ft 417 kts 96°
2026-05-03 22:52 35.39834 -86.02595 18053 ft 411 kts 95°
2026-05-03 22:52 35.39495 -85.99144 17456 ft 404 kts 95°
2026-05-03 22:53 35.39163 -85.95749 16849 ft 399 kts 95°
2026-05-03 22:53 35.38835 -85.92397 16252 ft 393 kts 95°
2026-05-03 22:53 35.38511 -85.89091 15665 ft 388 kts 95°
2026-05-03 22:53 35.38187 -85.85838 15161 ft 381 kts 95°
2026-05-03 22:54 35.37867 -85.82647 14658 ft 373 kts 95°
2026-05-03 22:54 35.37554 -85.79516 14155 ft 367 kts 95°
2026-05-03 22:54 35.37250 -85.76441 13665 ft 361 kts 95°
2026-05-03 22:54 35.36945 -85.73394 13200 ft 359 kts 95°
2026-05-03 22:55 35.36641 -85.70360 12697 ft 358 kts 95°
2026-05-03 22:55 35.36339 -85.67337 12196 ft 357 kts 95°
2026-05-03 22:55 35.36037 -85.64318 11695 ft 356 kts 95°
2026-05-03 22:55 35.35511 -85.61377 11179 ft 352 kts 111°
2026-05-03 22:56 35.34468 -85.58725 10681 ft 340 kts 117°
2026-05-03 22:56 35.33418 -85.56189 10235 ft 327 kts 117°
2026-05-03 22:56 35.32423 -85.53785 10162 ft 309 kts 117°
2026-05-03 22:56 35.31459 -85.51448 10000 ft 306 kts 117°
2026-05-03 22:57 35.30506 -85.49141 9684 ft 303 kts 117°
2026-05-03 22:57 35.29557 -85.46848 9360 ft 300 kts 117°
2026-05-03 22:57 35.28619 -85.44582 9036 ft 297 kts 117°
2026-05-03 22:57 35.27621 -85.42391 8708 ft 293 kts 129°
2026-05-03 22:58 35.26201 -85.40621 8390 ft 290 kts 139°
2026-05-03 22:58 35.24707 -85.38977 8048 ft 288 kts 140°
2026-05-03 22:58 35.23215 -85.37352 7672 ft 287 kts 140°
2026-05-03 22:58 35.21728 -85.35737 7302 ft 285 kts 140°
2026-05-03 22:59 35.20258 -85.34139 6929 ft 281 kts 140°
2026-05-03 22:59 35.18807 -85.32548 6551 ft 280 kts 137°
2026-05-03 22:59 35.17606 -85.30691 6180 ft 277 kts 126°
2026-05-03 22:59 35.16544 -85.28780 5818 ft 266 kts 125°
2026-05-03 23:00 35.15538 -85.26942 5445 ft 255 kts 124°
2026-05-03 23:00 35.14561 -85.25159 5074 ft 249 kts 124°
2026-05-03 23:00 35.13610 -85.23420 4699 ft 243 kts 124°
2026-05-03 23:00 35.12690 -85.21741 4334 ft 231 kts 124°
2026-05-03 23:01 35.11819 -85.20153 3973 ft 220 kts 124°
2026-05-03 23:01 35.10986 -85.18632 3597 ft 210 kts 124°
2026-05-03 23:01 35.10195 -85.17192 3263 ft 201 kts 124°
2026-05-03 23:01 35.09381 -85.15818 2980 ft 194 kts 120°
2026-05-03 23:02 35.09271 -85.14304 2856 ft 178 kts 64°
2026-05-03 23:02 35.10169 -85.13480 2622 ft 161 kts
2026-05-03 23:02 35.11012 -85.14070 2398 ft 140 kts 292°
2026-05-03 23:02 35.10977 -85.15179 2225 ft 129 kts 251°
2026-05-03 23:03 35.10624 -85.16187 2166 ft 129 kts 239°
2026-05-03 23:03 35.10058 -85.17037 2024 ft 128 kts 230°
2026-05-03 23:03 35.09440 -85.17808 1876 ft 127 kts 221°
2026-05-03 23:03 35.08689 -85.18367 1710 ft 127 kts 203°
2026-05-03 23:04 35.07857 -85.18705 1577 ft 127 kts 196°
2026-05-03 23:04 35.07010 -85.19000 1373 ft 126 kts 198°
2026-05-03 23:04 35.06168 -85.19306 1203 ft 126 kts 198°
2026-05-03 23:04 35.05332 -85.19625 1046 ft 126 kts 198°
2026-05-03 23:05 35.04490 -85.19938 816 ft 126 kts 197°
2026-05-03 23:05 35.03657 -85.20239 691 ft 116 kts 197°
2026-05-03 23:05 35.03019 -85.20476 687 ft 72 kts 196°
2026-05-03 23:05 35.02699 -85.20592 687 ft 28 kts 197°
2026-05-03 23:06 35.02584 -85.20598 684 ft 12 kts 127°
2026-05-03 23:06 35.02578 -85.20501 686 ft 12 kts 49°
2026-05-03 23:06 35.02666 -85.20465 691 ft 15 kts 17°
2026-05-03 23:06 35.02782 -85.20422 691 ft 20 kts 17°
2026-05-03 23:07 35.02917 -85.20373 688 ft 21 kts 16°
2026-05-03 23:07 35.03055 -85.20324 689 ft 21 kts 17°
2026-05-03 23:07 35.03183 -85.20271 691 ft 18 kts 32°
2026-05-03 23:07 35.03260 -85.20146 685 ft 19 kts 47°
2026-05-03 23:08 35.03380 -85.20082 689 ft 19 kts 16°
2026-05-03 23:08 35.03514 -85.20034 687 ft 21 kts 17°
2026-05-03 23:08 35.03650 -85.19983 688 ft 19 kts 17°
2026-05-03 23:08 35.03730 -85.19954 691 ft 16 kts 17°
2026-05-03 23:09 35.03800 -85.19919 685 ft 5 kts 52°
2026-05-03 23:09 35.03790 -85.19888 685 ft 4 kts 118°
2026-05-03 23:09 35.03783 -85.19871 691 ft 0 kts 117°